Kalamazoo, MI

7:44 PM EST on December 04, 2016 (GMT -0500)
Kalamazoo-Battle Creek International

Weather History for KAZO - March, 2012

Change the Weather History Date:

Friday, March 2, 2012

  Actual Average Record
Temperature  
Mean Temperature 40 °F 31 °F  
Max Temperature 45 °F 39 °F 62 °F (1983)
Min Temperature 34 °F 23 °F -1 °F (1962)
Degree Days  
Heating Degree Days 25 34  
Month to date heating degree days 68  
Since 1 July heating degree days 4841  
Cooling Degree Days 0 0  
Month to date cooling degree days 0  
Year to date cooling degree days 0  
Moisture  
Dew Point 35 °F    
Average Humidity 88    
Maximum Humidity 100    
Minimum Humidity 73    
Precipitation  
Precipitation 0.41 in 0.07 in 0.98 in (2002)
Month to date precipitation 0.45 0.15  
Year to date precipitation 3.39  
Sea Level Pressure  
Sea Level Pressure 29.46 in    
Wind  
Wind Speed 10 mph (ESE)    
Max Wind Speed 32 mph    
Max Gust Speed 45 mph    
Visibility 6 miles    
Events Rain , Snow    
T = Trace of Precipitation, MM = Missing Value Source: NWS Daily Summary

Daily Weather History Graph

Daily Weather History Graph

Search for Another Location

Airport or City:

Trip Planner

Search our weather history database for the weather conditions in past years. The results will help you decide how hot, cold, wet, or windy it might be!

Date:

Astronomy

Mar. 02, 2012 Rise Set
Actual Time 7:15 AM EST 6:34 PM EST
Civil Twilight 6:46 AM EST 7:02 PM EST
Nautical Twilight 6:14 AM EST 7:34 PM EST
Astronomical Twilight 5:42 AM EST 8:07 PM EST
Moon 12:40 PM EST (3/2) 3:09 AM EST (3/2)
Length of Visible Light 12h 15m
Length of Day
11h 18m
Waxing Gibbous, 66% of the Moon is Illuminated
Mar 2
Waxing Gibbous
Mar 8
Full
Mar 14
Last Quarter
Mar 22
New
Mar 30
First Quarter

Hourly Weather History & Observations

Time (EST) Temp. Windchill Dew Point Humidity Pressure Visibility Wind Dir Wind Speed Gust Speed Precip Events Conditions
12:07 AM 35.6 °F 32.8 °F 30.2 °F 81% 29.84 in 10.0 mi SSE 3.5 mph - N/A   Mostly Cloudy
12:53 AM 35.1 °F 31.0 °F 30.9 °F 85% 29.85 in 9.0 mi SE 4.6 mph - N/A   Mostly Cloudy
1:53 AM 35.1 °F 32.2 °F 30.9 °F 85% 29.86 in 8.0 mi SE 3.5 mph - N/A   Clear
2:53 AM 34.0 °F 31.0 °F 30.9 °F 89% 29.82 in 8.0 mi ESE 3.5 mph - N/A   Clear
3:53 AM 34.0 °F 29.8 °F 30.9 °F 89% 29.79 in 7.0 mi ESE 4.6 mph - N/A   Clear
4:53 AM 35.1 °F 31.0 °F 30.9 °F 85% 29.78 in 7.0 mi East 4.6 mph - N/A   Mostly Cloudy
5:53 AM 34.0 °F 28.8 °F 30.9 °F 89% 29.74 in 7.0 mi East 5.8 mph - N/A   Partly Cloudy
6:53 AM 34.0 °F 29.8 °F 30.9 °F 89% 29.71 in 7.0 mi East 4.6 mph - N/A   Clear
7:53 AM 35.1 °F 29.3 °F 30.9 °F 85% 29.69 in 6.0 mi East 6.9 mph - N/A   Clear
8:53 AM 36.0 °F 29.6 °F 30.9 °F 82% 29.68 in 7.0 mi East 8.1 mph - N/A   Mostly Cloudy
9:53 AM 37.9 °F 33.5 °F 32.0 °F 79% 29.65 in 8.0 mi East 5.8 mph - 0.00 in   Overcast
10:53 AM 39.0 °F 32.8 °F 33.1 °F 79% 29.59 in 8.0 mi East 9.2 mph - N/A   Mostly Cloudy
11:53 AM 41.0 °F 35.2 °F 34.0 °F 76% 29.52 in 9.0 mi East 9.2 mph - N/A   Clear
12:53 PM 42.1 °F 37.7 °F 34.0 °F 73% 29.52 in 10.0 mi ESE 6.9 mph - 0.00 in Rain Light Rain
1:44 PM 39.2 °F - 37.4 °F 93% 29.45 in 2.0 mi Calm Calm - 0.07 in Rain Rain
1:53 PM 39.9 °F 36.7 °F 37.0 °F 89% 29.47 in 3.0 mi East 4.6 mph - 0.08 in Rain Light Rain
2:04 PM 39.2 °F 35.9 °F 37.4 °F 93% 29.45 in 1.8 mi East 4.6 mph - 0.03 in Rain Rain
2:48 PM 39.2 °F 35.9 °F 37.4 °F 93% 29.41 in 2.0 mi ENE 4.6 mph - 0.13 in Rain Rain
2:53 PM 39.9 °F 36.7 °F 37.9 °F 93% 29.43 in 2.0 mi East 4.6 mph - 0.15 in Rain Rain
3:24 PM 39.2 °F 31.6 °F 39.2 °F 100% 29.31 in 4.0 mi East 12.7 mph 18.4 mph 0.03 in   Overcast
3:53 PM 42.1 °F 34.9 °F 39.9 °F 92% 29.29 in 5.0 mi East 13.8 mph 21.9 mph 0.03 in   Overcast
4:53 PM 44.1 °F 38.6 °F 41.0 °F 89% 29.20 in 8.0 mi East 10.4 mph 20.7 mph N/A   Overcast
5:53 PM 44.1 °F 40.8 °F 42.1 °F 93% 29.20 in 4.0 mi ESE 5.8 mph - 0.01 in Rain Light Rain
5:59 PM 44.6 °F 41.4 °F 42.8 °F 93% 29.20 in 1.8 mi Variable 5.8 mph - 0.04 in Rain Heavy Rain
6:13 PM 44.6 °F 42.2 °F 42.8 °F 93% 29.18 in 3.0 mi ESE 4.6 mph - 0.12 in Rain Light Rain
6:53 PM 44.1 °F 41.5 °F 43.0 °F 96% 29.17 in 5.0 mi South 4.6 mph - 0.12 in   Overcast
7:53 PM 44.1 °F 36.5 °F 42.1 °F 93% 29.18 in 3.0 mi WSW 17.3 mph 28.8 mph 0.01 in Rain Light Rain
8:24 PM 42.8 °F 33.5 °F 39.2 °F 87% 29.18 in 10.0 mi WSW 23.0 mph 32.2 mph 0.00 in   Overcast
8:34 PM 41.0 °F 30.9 °F 37.4 °F 87% 29.18 in 10.0 mi SW 24.2 mph 36.8 mph 0.00 in   Overcast
8:53 PM 39.9 °F 29.0 °F 37.9 °F 93% 29.22 in 7.0 mi WSW 26.5 mph 35.7 mph 0.00 in   Overcast
9:53 PM 36.0 °F 24.4 °F 33.1 °F 89% 29.30 in 6.0 mi West 23.0 mph 38.0 mph 0.00 in Rain Light Rain
10:23 PM 35.6 °F 23.2 °F 32.0 °F 87% 29.31 in 4.0 mi West 26.5 mph 36.8 mph 0.01 in Snow Light Snow
10:53 PM 35.1 °F 22.7 °F 32.0 °F 89% 29.35 in 4.0 mi West 25.3 mph 44.9 mph 0.01 in Snow Light Snow
11:19 PM 33.8 °F 20.5 °F 32.0 °F 93% 29.36 in 2.5 mi West 27.6 mph 38.0 mph 0.00 in Snow Light Snow
11:30 PM 33.8 °F 22.5 °F 32.0 °F 93% 29.37 in 4.0 mi West 19.6 mph 35.7 mph 0.00 in Snow Light Snow
11:53 PM 35.1 °F 23.8 °F 32.0 °F 89% 29.41 in 4.0 mi West 20.7 mph 38.0 mph 0.00 in Snow Light Snow